Time,TemperatureF,DewpointF,PressureIn,WindDirection,WindDirectionDegrees,WindSpeedMPH,WindSpeedGustMPH,Humidity,HourlyPrecipIn,Conditions,Clouds,dailyrainin,SoftwareType,DateUTC
2013-01-22 00:02:00,5.0,-1.0,30.41,WNW,294,9.0,12.0,74,0.00,,,0.00,,2013-01-22 06:02:00,
2013-01-22 00:12:00,5.0,-1.0,30.41,WNW,294,9.0,12.0,74,0.00,,,0.00,,2013-01-22 06:12:00,
2013-01-22 00:22:00,6.0,-1.0,30.40,WNW,300,8.0,13.0,73,0.00,,,0.00,,2013-01-22 06:22:00,
2013-01-22 00:32:00,6.0,-1.0,30.40,NW,310,9.0,16.0,72,0.00,,,0.00,,2013-01-22 06:32:00,
2013-01-22 00:42:00,6.0,-1.0,30.40,NW,310,9.0,16.0,72,0.00,,,0.00,,2013-01-22 06:42:00,
2013-01-22 00:52:00,6.0,-1.0,30.40,NW,306,7.0,13.0,73,0.00,,,0.00,,2013-01-22 06:52:00,
2013-01-22 01:02:00,5.0,-1.0,30.40,WNW,283,6.0,11.0,74,0.00,,,0.00,,2013-01-22 07:02:00,
2013-01-22 01:12:00,5.0,-1.0,30.40,WNW,283,6.0,11.0,74,0.00,,,0.00,,2013-01-22 07:12:00,
2013-01-22 01:22:00,5.0,-1.0,30.40,NW,312,6.0,11.0,74,0.00,,,0.00,,2013-01-22 07:22:00,
2013-01-22 01:32:00,5.0,-1.0,30.40,NW,311,8.0,13.0,74,0.00,,,0.00,,2013-01-22 07:32:00,
2013-01-22 01:42:00,5.0,-1.0,30.40,NW,311,8.0,13.0,74,0.00,,,0.00,,2013-01-22 07:42:00,
2013-01-22 01:52:00,5.0,-1.0,30.40,WNW,297,6.0,11.0,75,0.00,,,0.00,,2013-01-22 07:52:00,
2013-01-22 02:02:00,5.0,-1.0,30.41,West,281,5.0,9.0,75,0.00,,,0.00,,2013-01-22 08:02:00,
2013-01-22 02:12:00,5.0,-1.0,30.41,West,281,5.0,9.0,75,0.00,,,0.00,,2013-01-22 08:12:00,
2013-01-22 02:22:00,5.0,-1.0,30.41,NW,304,7.0,10.0,75,0.00,,,0.00,,2013-01-22 08:22:00,
2013-01-22 02:32:00,5.0,-1.0,30.41,WNW,294,4.0,12.0,75,0.00,,,0.00,,2013-01-22 08:32:00,
2013-01-22 02:42:00,5.0,-1.0,30.41,WNW,294,4.0,12.0,75,0.00,,,0.00,,2013-01-22 08:42:00,
2013-01-22 02:52:00,5.0,-1.0,30.42,West,271,5.0,9.0,75,0.00,,,0.00,,2013-01-22 08:52:00,
2013-01-22 03:02:00,5.0,-1.0,30.42,West,271,5.0,9.0,75,0.00,,,0.00,,2013-01-22 09:02:00,
2013-01-22 03:12:00,5.0,-1.0,30.42,West,271,5.0,9.0,75,0.00,,,0.00,,2013-01-22 09:12:00,
2013-01-22 03:22:00,4.0,-2.0,30.42,WNW,290,5.0,8.0,77,0.00,,,0.00,,2013-01-22 09:22:00,
2013-01-22 06:23:00,3.0,-2.0,30.44,West,269,3.0,6.0,79,0.00,,,0.00,,2013-01-22 12:23:00,
2013-01-22 06:33:00,3.0,-2.0,30.44,West,269,3.0,6.0,79,0.00,,,0.00,,2013-01-22 12:33:00,
2013-01-22 06:43:00,3.0,-2.0,30.44,WNW,287,4.0,7.0,80,0.00,,,0.00,,2013-01-22 12:43:00,
2013-01-22 06:52:00,3.0,-2.0,30.45,WNW,294,4.0,9.0,80,0.00,,,0.00,,2013-01-22 12:52:00,
2013-01-22 07:04:00,3.0,-2.0,30.45,WNW,285,3.0,8.0,80,0.00,,,0.00,,2013-01-22 13:04:00,
2013-01-22 07:13:00,3.0,-2.0,30.45,WNW,285,3.0,8.0,80,0.00,,,0.00,,2013-01-22 13:13:00,
2013-01-22 07:23:00,3.0,-2.0,30.46,WNW,291,4.0,7.0,80,0.00,,,0.00,,2013-01-22 13:23:00,
2013-01-22 07:33:00,3.0,-2.0,30.46,NW,304,4.0,6.0,80,0.00,,,0.00,,2013-01-22 13:33:00,
2013-01-22 07:43:00,3.0,-2.0,30.46,NW,304,4.0,6.0,80,0.00,,,0.00,,2013-01-22 13:43:00,
2013-01-22 07:53:00,2.0,-2.0,30.46,WNW,287,4.0,6.0,81,0.00,,,0.00,,2013-01-22 13:53:00,
2013-01-22 08:03:00,3.0,-1.0,30.47,WNW,284,3.0,7.0,81,0.00,,,0.00,,2013-01-22 14:03:00,
2013-01-22 08:13:00,3.0,-1.0,30.47,WNW,284,3.0,7.0,81,0.00,,,0.00,,2013-01-22 14:13:00,
2013-01-22 08:23:00,3.0,-2.0,30.47,WNW,293,5.0,8.0,80,0.00,,,0.00,,2013-01-22 14:23:00,
2013-01-22 08:34:00,4.0,-1.0,30.47,WNW,287,6.0,11.0,79,0.00,,,0.00,,2013-01-22 14:34:00,
2013-01-22 08:43:00,4.0,-1.0,30.47,WNW,287,6.0,11.0,79,0.00,,,0.00,,2013-01-22 14:43:00,
2013-01-22 08:53:00,4.0,-1.0,30.48,WNW,297,5.0,9.0,79,0.00,,,0.00,,2013-01-22 14:53:00,
2013-01-22 09:03:00,5.0,-1.0,30.48,NW,325,7.0,10.0,77,0.00,,,0.00,,2013-01-22 15:03:00,
2013-01-22 09:13:00,5.0,-1.0,30.48,NW,325,7.0,10.0,77,0.00,,,0.00,,2013-01-22 15:13:00,
2013-01-22 09:23:00,5.0,-1.0,30.48,WNW,297,7.0,11.0,76,0.00,,,0.00,,2013-01-22 15:23:00,
2013-01-22 09:34:00,5.0,-1.0,30.48,West,278,7.0,10.0,75,0.00,,,0.00,,2013-01-22 15:34:00,
2013-01-22 09:43:00,5.0,-1.0,30.48,West,278,7.0,10.0,75,0.00,,,0.00,,2013-01-22 15:43:00,
2013-01-22 09:52:00,6.0,0.0,30.49,NW,311,7.0,11.0,74,0.00,,,0.00,,2013-01-22 15:52:00,
2013-01-22 10:03:00,6.0,0.0,30.49,NW,311,7.0,11.0,74,0.00,,,0.00,,2013-01-22 16:03:00,
2013-01-22 10:13:00,6.0,0.0,30.49,NW,311,7.0,11.0,74,0.00,,,0.00,,2013-01-22 16:13:00,
2013-01-22 10:23:00,7.0,0.0,30.50,WNW,303,4.0,13.0,71,0.00,,,0.00,,2013-01-22 16:23:00,
2013-01-22 10:33:00,7.0,-2.0,30.50,NW,304,7.0,13.0,66,0.00,,,0.00,,2013-01-22 16:33:00,
2013-01-22 10:43:00,7.0,-2.0,30.50,NW,304,7.0,13.0,66,0.00,,,0.00,,2013-01-22 16:43:00,
2013-01-22 10:53:00,8.0,-1.0,30.50,NW,315,7.0,12.0,66,0.00,,,0.00,,2013-01-22 16:53:00,
2013-01-22 11:03:00,8.0,-1.0,30.50,NNW,346,6.0,10.0,66,0.00,,,0.00,,2013-01-22 17:03:00,
2013-01-22 11:13:00,8.0,-1.0,30.50,NNW,346,6.0,10.0,66,0.00,,,0.00,,2013-01-22 17:13:00,
2013-01-22 11:23:00,8.0,-2.0,30.49,WNW,300,7.0,13.0,64,0.00,,,0.00,,2013-01-22 17:23:00,
2013-01-22 11:34:00,9.0,-1.0,30.49,NNW,331,5.0,11.0,63,0.00,,,0.00,,2013-01-22 17:34:00,
2013-01-22 11:43:00,9.0,-1.0,30.49,NNW,331,5.0,11.0,63,0.00,,,0.00,,2013-01-22 17:43:00,
2013-01-22 11:53:00,9.0,-2.0,30.48,NW,309,8.0,12.0,60,0.00,,,0.00,,2013-01-22 17:53:00,
2013-01-22 12:03:00,9.0,-3.0,30.47,WNW,291,8.0,13.0,56,0.00,,,0.00,,2013-01-22 18:03:00,
2013-01-22 12:13:00,9.0,-3.0,30.47,WNW,291,8.0,13.0,56,0.00,,,0.00,,2013-01-22 18:13:00,
2013-01-22 12:23:00,9.0,-3.0,30.47,NW,306,6.0,14.0,56,0.00,,,0.00,,2013-01-22 18:23:00,
2013-01-22 12:33:00,10.0,-3.0,30.47,West,276,8.0,13.0,56,0.00,,,0.00,,2013-01-22 18:33:00,
2013-01-22 12:43:00,10.0,-3.0,30.47,West,276,8.0,13.0,56,0.00,,,0.00,,2013-01-22 18:43:00,
2013-01-22 12:53:00,10.0,-3.0,30.47,WNW,294,7.0,13.0,56,0.00,,,0.00,,2013-01-22 18:53:00,
2013-01-22 13:03:00,10.0,-3.0,30.46,WNW,297,7.0,14.0,55,0.00,,,0.00,,2013-01-22 19:03:00,
2013-01-22 13:13:00,10.0,-3.0,30.46,WNW,297,7.0,14.0,55,0.00,,,0.00,,2013-01-22 19:13:00,
2013-01-22 13:23:00,11.0,-2.0,30.45,WNW,300,9.0,15.0,54,0.00,,,0.00,,2013-01-22 19:23:00,
2013-01-22 13:33:00,12.0,-2.0,30.46,WNW,294,8.0,13.0,53,0.00,,,0.00,,2013-01-22 19:33:00,
2013-01-22 13:43:00,12.0,-2.0,30.46,WNW,294,8.0,13.0,53,0.00,,,0.00,,2013-01-22 19:43:00,
2013-01-22 13:53:00,12.0,-2.0,30.43,West,279,8.0,13.0,53,0.00,,,0.00,,2013-01-22 19:53:00,
2013-01-22 14:03:00,12.0,-3.0,30.44,NW,311,10.0,16.0,51,0.00,,,0.00,,2013-01-22 20:03:00,
2013-01-22 14:13:00,12.0,-3.0,30.44,NW,311,10.0,16.0,51,0.00,,,0.00,,2013-01-22 20:13:00,
2013-01-22 14:23:00,13.0,-2.0,30.45,West,277,8.0,13.0,51,0.00,,,0.00,,2013-01-22 20:23:00,
2013-01-22 14:33:00,13.0,-1.0,30.45,WNW,288,7.0,14.0,53,0.00,,,0.00,,2013-01-22 20:33:00,
2013-01-22 14:43:00,13.0,-1.0,30.45,WNW,288,7.0,14.0,53,0.00,,,0.00,,2013-01-22 20:43:00,
2013-01-22 14:53:00,13.0,-1.0,30.44,WNW,284,6.0,13.0,53,0.00,,,0.00,,2013-01-22 20:53:00,
2013-01-22 15:03:00,14.0,0.0,30.44,WNW,303,5.0,11.0,52,0.00,,,0.00,,2013-01-22 21:03:00,
2013-01-22 15:13:00,14.0,0.0,30.44,WNW,303,5.0,11.0,52,0.00,,,0.00,,2013-01-22 21:13:00,
2013-01-22 15:23:00,14.0,0.0,30.42,West,275,7.0,13.0,52,0.00,,,0.00,,2013-01-22 21:23:00,
2013-01-22 15:33:00,14.0,0.0,30.42,West,275,7.0,13.0,52,0.00,,,0.00,,2013-01-22 21:33:00,
2013-01-22 15:43:00,14.0,0.0,30.42,West,275,7.0,13.0,52,0.00,,,0.00,,2013-01-22 21:43:00,
2013-01-22 15:53:00,13.0,-1.0,30.44,West,274,6.0,11.0,52,0.00,,,0.00,,2013-01-22 21:53:00,
2013-01-22 16:03:00,13.0,-1.0,30.44,West,266,8.0,12.0,53,0.00,,,0.00,,2013-01-22 22:03:00,
2013-01-22 16:13:00,13.0,-1.0,30.44,West,266,8.0,12.0,53,0.00,,,0.00,,2013-01-22 22:13:00,
2013-01-22 16:22:00,13.0,-1.0,30.43,WNW,292,6.0,12.0,52,0.00,,,0.00,,2013-01-22 22:22:00,
2013-01-22 16:32:00,13.0,-1.0,30.43,WNW,292,6.0,12.0,52,0.00,,,0.00,,2013-01-22 22:32:00,
2013-01-22 16:42:00,13.0,0.0,30.43,West,271,6.0,10.0,54,0.00,,,0.00,,2013-01-22 22:42:00,
2013-01-22 16:43:00,13.0,-1.0,30.43,West,277,7.0,11.0,53,0.00,,,0.00,,2013-01-22 22:43:00,
2013-01-22 16:53:00,13.0,-1.0,30.43,West,277,7.0,11.0,53,0.00,,,0.00,,2013-01-22 22:53:00,
2013-01-22 17:03:00,13.0,0.0,30.43,West,271,6.0,10.0,54,0.00,,,0.00,,2013-01-22 23:03:00,
2013-01-22 17:12:00,13.0,0.0,30.43,West,271,6.0,10.0,54,0.00,,,0.00,,2013-01-22 23:12:00,
2013-01-22 17:24:00,13.0,0.0,30.43,West,271,6.0,10.0,54,0.00,,,0.00,,2013-01-22 23:24:00,
2013-01-22 17:33:00,13.0,0.0,30.43,West,271,6.0,10.0,54,0.00,,,0.00,,2013-01-22 23:33:00,
2013-01-22 17:53:00,13.0,0.0,30.43,West,259,5.0,10.0,54,0.00,,,0.00,,2013-01-22 23:53:00,
2013-01-22 18:03:00,13.0,0.0,30.43,West,259,5.0,10.0,54,0.00,,,0.00,,2013-01-23 00:03:00,
2013-01-22 18:12:00,13.0,0.0,30.43,West,259,5.0,10.0,54,0.00,,,0.00,,2013-01-23 00:12:00,
2013-01-22 18:22:00,13.0,0.0,30.43,West,259,5.0,10.0,54,0.00,,,0.00,,2013-01-23 00:22:00,
2013-01-22 18:52:00,14.0,0.0,30.43,West,266,6.0,9.0,54,0.00,,,0.00,,2013-01-23 00:52:00,
2013-01-22 19:03:00,14.0,0.0,30.42,WNW,287,4.0,9.0,54,0.00,,,0.00,,2013-01-23 01:03:00,
2013-01-22 19:13:00,14.0,0.0,30.42,WNW,287,4.0,9.0,54,0.00,,,0.00,,2013-01-23 01:13:00,
2013-01-22 19:33:00,14.0,0.0,30.42,WNW,283,4.0,8.0,54,0.00,,,0.00,,2013-01-23 01:33:00,
2013-01-22 19:43:00,14.0,0.0,30.42,WNW,283,4.0,8.0,54,0.00,,,0.00,,2013-01-23 01:43:00,
2013-01-22 19:52:00,14.0,0.0,30.42,West,264,5.0,8.0,54,0.00,,,0.00,,2013-01-23 01:52:00,
2013-01-22 20:03:00,14.0,1.0,30.41,West,277,3.0,8.0,55,0.00,,,0.00,,2013-01-23 02:03:00,
2013-01-22 20:12:00,14.0,1.0,30.41,West,277,3.0,8.0,55,0.00,,,0.00,,2013-01-23 02:12:00,
2013-01-22 20:23:00,14.0,1.0,30.41,West,271,4.0,6.0,55,0.00,,,0.00,,2013-01-23 02:23:00,
2013-01-22 20:33:00,14.0,1.0,30.42,West,271,4.0,7.0,55,0.00,,,0.00,,2013-01-23 02:33:00,
2013-01-22 20:42:00,14.0,1.0,30.42,West,271,4.0,7.0,55,0.00,,,0.00,,2013-01-23 02:42:00,
2013-01-22 20:53:00,14.0,1.0,30.42,West,267,4.0,6.0,56,0.00,,,0.00,,2013-01-23 02:53:00,
2013-01-22 21:03:00,15.0,2.0,30.42,West,270,4.0,6.0,55,0.00,,,0.00,,2013-01-23 03:03:00,
2013-01-22 21:12:00,15.0,2.0,30.42,West,270,4.0,6.0,55,0.00,,,0.00,,2013-01-23 03:12:00,
2013-01-22 21:23:00,14.0,1.0,30.42,West,270,5.0,7.0,55,0.00,,,0.00,,2013-01-23 03:23:00,
2013-01-22 21:33:00,15.0,2.0,30.42,WNW,297,2.0,6.0,56,0.00,,,0.00,,2013-01-23 03:33:00,
2013-01-22 21:42:00,15.0,2.0,30.42,WNW,297,2.0,6.0,56,0.00,,,0.00,,2013-01-23 03:42:00,
2013-01-22 22:52:00,12.0,2.0,30.43,West,266,1.0,3.0,63,0.00,,,0.00,,2013-01-23 04:52:00,
2013-01-22 23:03:00,12.0,2.0,30.44,West,266,1.0,3.0,64,0.00,,,0.00,,2013-01-23 05:03:00,
2013-01-22 23:12:00,12.0,2.0,30.44,West,266,1.0,3.0,64,0.00,,,0.00,,2013-01-23 05:12:00,
2013-01-22 23:22:00,12.0,3.0,30.44,West,266,1.0,3.0,65,0.00,,,0.00,,2013-01-23 05:22:00,
2013-01-22 23:33:00,11.0,3.0,30.43,WSW,257,2.0,4.0,68,0.00,,,0.00,,2013-01-23 05:33:00,
2013-01-22 23:43:00,11.0,3.0,30.43,WSW,257,2.0,4.0,68,0.00,,,0.00,,2013-01-23 05:43:00,
2013-01-22 23:52:00,12.0,4.0,30.43,WSW,242,2.0,5.0,70,0.00,,,0.00,,2013-01-23 05:52:00,